Simultaneous Nadir Overpasses (SNOs) Predictions

Prediction of SNOs between GOES-16 and NOAA-19 Satellite Orbit:

Table of predicted SNOs for the next 14.0 days since TLE Epoch: 9/4/2020
Index Date Time (GOES-16) GOES-16 Lat,Lon NOAA-19 Lat,Lon Distance(km) Time Diff (sec)
1 09/05/2020 11:05:46 -0.04, -75.18 -0.12, -74.92 30.15 80
2 09/06/2020 10:54:04 -0.04, -75.17 -0.75, -72.06 355.50 80
3 09/08/2020 23:17:44 0.04, -75.14 -0.40, -77.02 214.03 80
4 09/09/2020 23:03:22 0.04, -75.14 0.28, -74.16 111.52 80
5 09/10/2020 22:51:41 0.04, -75.13 0.95, -71.31 437.08 80
6 09/12/2020 11:26:57 -0.04, -75.14 0.87, -79.11 452.60 80
7 09/13/2020 11:15:15 -0.04, -75.14 0.23, -76.24 126.80 80
8 09/14/2020 11:00:53 -0.04, -75.13 -0.46, -73.39 199.11 80
9 09/16/2020 23:24:34 0.04, -75.12 -0.73, -78.35 369.79 80
10 09/17/2020 23:12:52 0.04, -75.12 -0.06, -75.50 43.45 80
